SWA6299 TNCB-SKRG

Flight info

Callsign SWA6299
Flight time 1h 24m
Altitude 36000
Route CUC UW26 DIPRA DIPRA3B
Aircraft B738/M-SDE2E3FGHIRWXY/LB1

Departure

Time 2026-05-08 11:32
Airport Flamingo International Airport (TNCB)

Arrival

Time 2026-05-08 12:56
Airport Jose Maria Córdova International Airport (SKRG)
Time Latitude Longitude Altitude Speed Heading
2026-05-08 11:01 12.13266 -68.27682 19 ft 0 kts
2026-05-08 11:29 12.13271 -68.27684 19 ft 2 kts 329°
2026-05-08 11:29 12.13268 -68.27715 20 ft 6 kts 232°
2026-05-08 11:30 12.13227 -68.27746 21 ft 8 kts 209°
2026-05-08 11:30 12.13173 -68.27769 21 ft 8 kts 199°
2026-05-08 11:30 12.13129 -68.27808 22 ft 8 kts 243°
2026-05-08 11:30 12.13116 -68.27885 22 ft 11 kts 269°
2026-05-08 11:31 12.13112 -68.27962 22 ft 10 kts 256°
2026-05-08 11:31 12.13083 -68.28029 22 ft 10 kts 246°
2026-05-08 11:31 12.13088 -68.28097 21 ft 8 kts 294°
2026-05-08 11:31 12.13121 -68.28106 20 ft 4 kts 45°
2026-05-08 11:32 12.13123 -68.28060 21 ft 22 kts 93°
2026-05-08 11:32 12.13109 -68.27607 20 ft 103 kts 91°
2026-05-08 11:32 12.13080 -68.26640 36 ft 166 kts 93°
2026-05-08 11:32 12.13033 -68.25436 671 ft 175 kts 94°
2026-05-08 11:33 12.12968 -68.24171 1332 ft 183 kts 94°
2026-05-08 11:33 12.12894 -68.22798 1651 ft 208 kts 94°
2026-05-08 11:33 12.12812 -68.21313 2381 ft 217 kts 94°
2026-05-08 11:33 12.12720 -68.19734 3103 ft 231 kts 94°
2026-05-08 11:34 12.12449 -68.18092 3832 ft 244 kts 111°
2026-05-08 11:34 12.11432 -68.16686 4715 ft 254 kts 140°
2026-05-08 11:34 12.09840 -68.15932 5545 ft 267 kts 166°
2026-05-08 11:34 12.07969 -68.15977 6430 ft 277 kts 188°
2026-05-08 11:35 12.06154 -68.16721 7210 ft 291 kts 214°
2026-05-08 11:35 12.04748 -68.18201 8176 ft 293 kts 229°
2026-05-08 11:35 12.03444 -68.19788 8948 ft 298 kts 227°
2026-05-08 11:35 12.02068 -68.21368 9733 ft 303 kts 227°
2026-05-08 11:36 12.00662 -68.22981 10347 ft 314 kts 227°
2026-05-08 11:36 11.99133 -68.24745 10491 ft 341 kts 227°
2026-05-08 11:36 11.97555 -68.26562 11087 ft 350 kts 227°
2026-05-08 11:36 11.95911 -68.28452 11662 ft 360 kts 227°
2026-05-08 11:37 11.94241 -68.30367 12334 ft 365 kts 227°
2026-05-08 11:37 11.92547 -68.32310 13088 ft 368 kts 228°
2026-05-08 11:37 11.90862 -68.34248 13762 ft 371 kts 228°
2026-05-08 11:37 11.89128 -68.36240 14479 ft 374 kts 228°
2026-05-08 11:38 11.87413 -68.38207 15148 ft 377 kts 228°
2026-05-08 11:38 11.85648 -68.40231 15819 ft 379 kts 228°
2026-05-08 11:38 11.83902 -68.42235 16454 ft 382 kts 228°
2026-05-08 11:38 11.82129 -68.44268 17069 ft 384 kts 228°
2026-05-08 11:39 11.80354 -68.46303 17667 ft 387 kts 228°
2026-05-08 11:39 11.78574 -68.48344 18256 ft 389 kts 228°
2026-05-08 11:39 11.76776 -68.50403 18757 ft 394 kts 228°
2026-05-08 11:39 11.74939 -68.52508 19278 ft 397 kts 228°
2026-05-08 11:40 11.73116 -68.54597 19765 ft 401 kts 228°
2026-05-08 11:40 11.71243 -68.56742 20250 ft 405 kts 228°
2026-05-08 11:40 11.69370 -68.58886 20715 ft 409 kts 229°
2026-05-08 11:40 11.67464 -68.61069 21149 ft 413 kts 229°
2026-05-08 11:41 11.65563 -68.63245 21622 ft 416 kts 229°
2026-05-08 11:41 11.63647 -68.65437 22053 ft 419 kts 228°
2026-05-08 11:41 11.61693 -68.67672 22473 ft 422 kts 229°
2026-05-08 11:41 11.59741 -68.69905 22876 ft 426 kts 229°
2026-05-08 11:42 11.57766 -68.72165 23256 ft 429 kts 229°
2026-05-08 11:42 11.55773 -68.74442 23631 ft 432 kts 229°
2026-05-08 11:42 11.53788 -68.76712 23992 ft 435 kts 229°
2026-05-08 11:42 11.51756 -68.79035 24390 ft 437 kts 229°
2026-05-08 11:43 11.49739 -68.81338 24749 ft 440 kts 229°
2026-05-08 11:43 11.47699 -68.83668 25135 ft 442 kts 229°
2026-05-08 11:43 11.45668 -68.85986 25486 ft 444 kts 229°
2026-05-08 11:43 11.43609 -68.88338 25840 ft 446 kts 229°
2026-05-08 11:44 11.41544 -68.90694 26186 ft 448 kts 229°
2026-05-08 11:44 11.39468 -68.93064 26513 ft 450 kts 229°
2026-05-08 11:44 11.37374 -68.95454 26848 ft 452 kts 229°
2026-05-08 11:44 11.35287 -68.97832 27159 ft 454 kts 229°
2026-05-08 11:45 11.33191 -69.00223 27471 ft 456 kts 229°
2026-05-08 11:45 11.31088 -69.02620 27769 ft 458 kts 229°
2026-05-08 11:45 11.28954 -69.05053 28066 ft 459 kts 229°
2026-05-08 11:45 11.26831 -69.07471 28360 ft 461 kts 229°
2026-05-08 11:46 11.24715 -69.09882 28634 ft 463 kts 229°
2026-05-08 11:46 11.22549 -69.12349 28900 ft 464 kts 229°
2026-05-08 11:46 11.20395 -69.14800 29164 ft 466 kts 230°
2026-05-08 11:46 11.18239 -69.17255 29413 ft 468 kts 230°
2026-05-08 11:47 11.16081 -69.19712 29667 ft 469 kts 230°
2026-05-08 11:47 11.13910 -69.22182 29919 ft 471 kts 230°
2026-05-08 11:47 11.11740 -69.24651 30149 ft 472 kts 230°
2026-05-08 11:47 11.09535 -69.27160 30360 ft 474 kts 230°
2026-05-08 11:48 11.07358 -69.29635 30560 ft 476 kts 230°
2026-05-08 11:48 11.05142 -69.32154 30782 ft 477 kts 230°
2026-05-08 11:48 11.02912 -69.34688 30992 ft 479 kts 230°
2026-05-08 11:48 11.00711 -69.37189 31165 ft 481 kts 230°
2026-05-08 11:49 10.98468 -69.39738 31385 ft 482 kts 230°
2026-05-08 11:49 10.96232 -69.42278 31538 ft 484 kts 230°
2026-05-08 11:49 10.94011 -69.44797 31739 ft 485 kts 230°
2026-05-08 11:49 10.91740 -69.47375 31902 ft 487 kts 230°
2026-05-08 11:50 10.89486 -69.49933 32056 ft 488 kts 230°
2026-05-08 11:50 10.84955 -69.55072 32332 ft 491 kts 230°
2026-05-08 11:50 10.82676 -69.57655 32454 ft 493 kts 230°
2026-05-08 11:51 10.80403 -69.60232 32600 ft 494 kts 230°
2026-05-08 11:51 10.78109 -69.62832 32754 ft 494 kts 230°
2026-05-08 11:51 10.75806 -69.65441 32998 ft 493 kts 230°
2026-05-08 11:51 10.73525 -69.68024 33205 ft 492 kts 230°
2026-05-08 11:52 10.71250 -69.70600 33402 ft 492 kts 230°
2026-05-08 11:52 10.68972 -69.73180 33540 ft 493 kts 230°
2026-05-08 11:52 10.66687 -69.75768 33770 ft 492 kts 230°
2026-05-08 11:52 10.64407 -69.78348 33942 ft 492 kts 230°
2026-05-08 11:53 10.62129 -69.80925 34056 ft 493 kts 230°
2026-05-08 11:53 10.59839 -69.83515 34298 ft 492 kts 230°
2026-05-08 11:53 10.57585 -69.86063 34494 ft 491 kts 230°
2026-05-08 11:53 10.55286 -69.88663 34632 ft 492 kts 230°
2026-05-08 11:54 10.53023 -69.91221 34825 ft 491 kts 230°
2026-05-08 11:54 10.50728 -69.93814 35013 ft 490 kts 230°
2026-05-08 11:54 10.48478 -69.96357 35168 ft 490 kts 230°
2026-05-08 11:54 10.46192 -69.98938 35341 ft 490 kts 230°
2026-05-08 11:55 10.43939 -70.01481 35520 ft 489 kts 230°
2026-05-08 11:55 10.41660 -70.04051 35702 ft 488 kts 230°
2026-05-08 11:55 10.39422 -70.06574 35968 ft 485 kts 230°
2026-05-08 11:56 10.34910 -70.11663 36025 ft 486 kts 230°
2026-05-08 11:56 10.30400 -70.16753 36024 ft 483 kts 230°
2026-05-08 11:57 10.25923 -70.21802 36023 ft 483 kts 230°
2026-05-08 11:57 10.21466 -70.26824 36021 ft 483 kts 230°
2026-05-08 11:58 10.16962 -70.31897 36019 ft 483 kts 230°
2026-05-08 11:58 10.12476 -70.36947 36020 ft 483 kts 230°
2026-05-08 11:59 10.05757 -70.44507 36024 ft 483 kts 230°
2026-05-08 11:59 10.01273 -70.49548 36023 ft 484 kts 230°
2026-05-08 12:00 9.96748 -70.54633 36020 ft 483 kts 230°
2026-05-08 12:00 9.92286 -70.59644 36018 ft 483 kts 230°
2026-05-08 12:01 9.87802 -70.64679 36016 ft 483 kts 230°
2026-05-08 12:01 9.83298 -70.69736 36014 ft 482 kts 229°
2026-05-08 12:02 9.78827 -70.74752 36006 ft 480 kts 229°
2026-05-08 12:02 9.74393 -70.79725 36004 ft 479 kts 229°
2026-05-08 12:03 9.69933 -70.84724 36001 ft 478 kts 229°
2026-05-08 12:03 9.65485 -70.89708 35998 ft 478 kts 229°
2026-05-08 12:04 9.61033 -70.94694 35997 ft 478 kts 229°
2026-05-08 12:04 9.56586 -70.99672 35994 ft 477 kts 229°
2026-05-08 12:05 9.52154 -71.04631 35993 ft 476 kts 229°
2026-05-08 12:05 9.47732 -71.09578 35990 ft 476 kts 229°
2026-05-08 12:06 9.43284 -71.14551 35999 ft 476 kts 229°
2026-05-08 12:06 9.38875 -71.19479 35997 ft 476 kts 229°
2026-05-08 12:07 9.34436 -71.24437 35997 ft 475 kts 229°
2026-05-08 12:07 9.30022 -71.29366 35996 ft 475 kts 229°
2026-05-08 12:08 9.25577 -71.34329 35995 ft 475 kts 229°
2026-05-08 12:08 9.21164 -71.39253 35994 ft 475 kts 229°
2026-05-08 12:09 9.16748 -71.44178 35994 ft 475 kts 229°
2026-05-08 12:09 9.12320 -71.49115 35994 ft 475 kts 229°
2026-05-08 12:10 9.07896 -71.54047 35992 ft 474 kts 229°
2026-05-08 12:10 9.03484 -71.58960 35992 ft 474 kts 229°
2026-05-08 12:11 8.99059 -71.63887 35991 ft 474 kts 229°
2026-05-08 12:11 8.94647 -71.68799 35991 ft 474 kts 229°
2026-05-08 12:12 8.90229 -71.73713 35976 ft 474 kts 229°
2026-05-08 12:12 8.85811 -71.78625 35978 ft 473 kts 229°
2026-05-08 12:13 8.81386 -71.83549 35978 ft 473 kts 229°
2026-05-08 12:13 8.76977 -71.88448 35982 ft 473 kts 229°
2026-05-08 12:14 8.72557 -71.93358 35983 ft 473 kts 228°
2026-05-08 12:14 8.68169 -71.98230 35983 ft 472 kts 228°
2026-05-08 12:15 8.63763 -72.03123 35982 ft 470 kts 228°
2026-05-08 12:15 8.59371 -72.07998 35985 ft 468 kts 228°
2026-05-08 12:16 8.54997 -72.12847 35986 ft 469 kts 228°
2026-05-08 12:16 8.50639 -72.17679 35986 ft 469 kts 228°
2026-05-08 12:17 8.46256 -72.22537 35987 ft 469 kts 228°
2026-05-08 12:17 8.41865 -72.27402 35988 ft 469 kts 228°
2026-05-08 12:18 8.37496 -72.32242 35989 ft 469 kts 228°
2026-05-08 12:18 8.33109 -72.37099 35990 ft 469 kts 228°
2026-05-08 12:19 8.28747 -72.41927 35991 ft 469 kts 228°
2026-05-08 12:19 8.24363 -72.46778 35992 ft 469 kts 228°
2026-05-08 12:20 8.19978 -72.51629 35992 ft 468 kts 228°
2026-05-08 12:20 8.15595 -72.56474 35996 ft 467 kts 228°
2026-05-08 12:21 8.11252 -72.61276 35995 ft 467 kts 228°
2026-05-08 12:21 8.06859 -72.66129 35995 ft 468 kts 228°
2026-05-08 12:22 8.02478 -72.70967 35995 ft 468 kts 228°
2026-05-08 12:22 7.98103 -72.75796 35997 ft 469 kts 228°
2026-05-08 12:23 7.93719 -72.80635 35997 ft 467 kts 228°
2026-05-08 12:23 7.89379 -72.85424 35997 ft 466 kts 228°
2026-05-08 12:24 7.84985 -72.90269 35998 ft 467 kts 228°
2026-05-08 12:24 7.80604 -72.95101 36003 ft 472 kts 228°
2026-05-08 12:25 7.76193 -72.99963 36007 ft 473 kts 228°
2026-05-08 12:25 7.71758 -73.04855 36010 ft 470 kts 228°
2026-05-08 12:26 7.67379 -73.09677 36015 ft 466 kts 228°
2026-05-08 12:26 7.63044 -73.14449 36018 ft 465 kts 228°
2026-05-08 12:27 7.58676 -73.19256 36022 ft 466 kts 228°
2026-05-08 12:27 7.54309 -73.24061 36006 ft 465 kts 228°
2026-05-08 12:28 7.49978 -73.28825 36006 ft 464 kts 228°
2026-05-08 12:28 7.45620 -73.33616 36006 ft 463 kts 228°
2026-05-08 12:29 7.41304 -73.38362 36004 ft 462 kts 228°
2026-05-08 12:29 7.36966 -73.43129 36000 ft 462 kts 228°
2026-05-08 12:30 7.32625 -73.47897 35992 ft 462 kts 228°
2026-05-08 12:30 7.28297 -73.52652 35981 ft 463 kts 228°
2026-05-08 12:31 7.23958 -73.57416 35965 ft 463 kts 228°
2026-05-08 12:31 7.19631 -73.62166 35949 ft 463 kts 228°
2026-05-08 12:32 7.15284 -73.66936 35933 ft 463 kts 228°
2026-05-08 12:32 7.10946 -73.71693 35922 ft 463 kts 228°
2026-05-08 12:33 7.06629 -73.76425 35915 ft 462 kts 228°
2026-05-08 12:33 7.02596 -73.81426 35912 ft 461 kts 237°
2026-05-08 12:34 6.99378 -73.87035 35914 ft 461 kts 241°
2026-05-08 12:34 6.96209 -73.92601 35916 ft 461 kts 240°
2026-05-08 12:35 6.93049 -73.98181 35919 ft 460 kts 241°
2026-05-08 12:35 6.89916 -74.03754 35924 ft 459 kts 241°
2026-05-08 12:36 6.86758 -74.09375 35942 ft 460 kts 241°
2026-05-08 12:36 6.83632 -74.14949 35954 ft 460 kts 241°
2026-05-08 12:37 6.80510 -74.20518 35970 ft 459 kts 241°
2026-05-08 12:37 6.77380 -74.26101 35988 ft 459 kts 241°
2026-05-08 12:38 6.74249 -74.31686 36008 ft 459 kts 241°
2026-05-08 12:38 6.71115 -74.37275 36029 ft 459 kts 241°
2026-05-08 12:39 6.67983 -74.42860 36052 ft 459 kts 241°
2026-05-08 12:39 6.64882 -74.48387 36075 ft 458 kts 241°
2026-05-08 12:40 6.61862 -74.54024 36098 ft 458 kts 246°
2026-05-08 12:40 6.59638 -74.59998 36123 ft 458 kts 251°
2026-05-08 12:41 6.57479 -74.66017 36145 ft 458 kts 250°
2026-05-08 12:41 6.55319 -74.72057 36167 ft 459 kts 251°
2026-05-08 12:42 6.54260 -74.75053 35588 ft 459 kts 251°
2026-05-08 12:42 6.53197 -74.78062 34539 ft 464 kts 250°
2026-05-08 12:42 6.52128 -74.81094 33788 ft 462 kts 250°
2026-05-08 12:42 6.51050 -74.84154 32743 ft 467 kts 251°
2026-05-08 12:43 6.49976 -74.87204 31666 ft 472 kts 251°
2026-05-08 12:43 6.48880 -74.90321 30588 ft 476 kts 251°
2026-05-08 12:43 6.47769 -74.93478 29318 ft 482 kts 251°
2026-05-08 12:43 6.46671 -74.96600 28342 ft 481 kts 251°
2026-05-08 12:44 6.45556 -74.99771 27661 ft 474 kts 251°
2026-05-08 12:44 6.44465 -75.02876 26807 ft 470 kts 251°
2026-05-08 12:44 6.43399 -75.05905 26129 ft 464 kts 250°
2026-05-08 12:44 6.42134 -75.08890 25300 ft 461 kts 243°
2026-05-08 12:45 6.40497 -75.11585 24596 ft 454 kts 233°
2026-05-08 12:45 6.38472 -75.13981 23831 ft 450 kts 224°
2026-05-08 12:45 6.36089 -75.15975 23113 ft 444 kts 214°
2026-05-08 12:45 6.33486 -75.17595 22408 ft 438 kts 207°
2026-05-08 12:46 6.30764 -75.18783 21689 ft 432 kts 197°
2026-05-08 12:46 6.27877 -75.19590 21021 ft 426 kts 193°
2026-05-08 12:46 6.25050 -75.20325 20318 ft 421 kts 194°
2026-05-08 12:46 6.22264 -75.21091 19620 ft 416 kts 195°
2026-05-08 12:47 6.19499 -75.21858 18910 ft 412 kts 194°
2026-05-08 12:47 6.16751 -75.22611 18078 ft 410 kts 194°
2026-05-08 12:47 6.14017 -75.23357 17387 ft 405 kts 194°
2026-05-08 12:47 6.11322 -75.24094 16715 ft 400 kts 194°
2026-05-08 12:48 6.08697 -75.24810 16063 ft 395 kts 194°
2026-05-08 12:48 6.06077 -75.25524 15423 ft 389 kts 194°
2026-05-08 12:48 6.03499 -75.26227 14987 ft 379 kts 194°
2026-05-08 12:48 6.00995 -75.26909 14746 ft 364 kts 194°
2026-05-08 12:49 5.98607 -75.27560 14593 ft 348 kts 194°
2026-05-08 12:49 5.96345 -75.28175 14434 ft 334 kts 194°
2026-05-08 12:49 5.94128 -75.28779 14274 ft 321 kts 194°
2026-05-08 12:49 5.92030 -75.29349 14120 ft 309 kts 194°
2026-05-08 12:50 5.90041 -75.30045 13960 ft 299 kts 208°
2026-05-08 12:50 5.88543 -75.31376 13741 ft 283 kts 237°
2026-05-08 12:50 5.87784 -75.33180 13423 ft 280 kts 257°
2026-05-08 12:50 5.87599 -75.35102 13096 ft 277 kts 270°
2026-05-08 12:51 5.87613 -75.37013 12808 ft 273 kts 269°
2026-05-08 12:51 5.88157 -75.40608 12643 ft 263 kts 306°
2026-05-08 12:51 5.89538 -75.41811 12349 ft 270 kts 337°
2026-05-08 12:52 5.91373 -75.42188 11831 ft 271 kts
2026-05-08 12:52 5.95109 -75.42215 11085 ft 270 kts 360°
2026-05-08 12:52 5.96976 -75.42242 10739 ft 266 kts
2026-05-08 12:53 5.98789 -75.42245 10386 ft 258 kts
2026-05-08 12:53 6.00564 -75.42246 10050 ft 249 kts
2026-05-08 12:53 6.02243 -75.42252 9744 ft 237 kts
2026-05-08 12:53 6.03848 -75.42264 9439 ft 223 kts
2026-05-08 12:54 6.05297 -75.42270 9161 ft 195 kts
2026-05-08 12:54 6.06572 -75.42275 8915 ft 175 kts
2026-05-08 12:54 6.07777 -75.42270 8677 ft 174 kts
2026-05-08 12:54 6.09000 -75.42243 8338 ft 176 kts
2026-05-08 12:55 6.10237 -75.42244 7985 ft 178 kts 359°
2026-05-08 12:55 6.11444 -75.42299 7709 ft 173 kts 356°
2026-05-08 12:55 6.12636 -75.42329 7407 ft 172 kts
2026-05-08 12:55 6.13829 -75.42296 7157 ft 171 kts
2026-05-08 12:56 6.15004 -75.42305 6980 ft 170 kts 359°
2026-05-08 12:56 6.16084 -75.42313 6962 ft 127 kts 359°
2026-05-08 12:56 6.16753 -75.42316 6974 ft 66 kts 360°
2026-05-08 12:56 6.16995 -75.42342 6987 ft 22 kts 327°
2026-05-08 12:57 6.17103 -75.42412 6991 ft 14 kts 328°
2026-05-08 12:57 6.17161 -75.42457 6993 ft 6 kts 296°
2026-05-08 12:57 6.17172 -75.42488 6994 ft 4 kts 287°
2026-05-08 12:57 6.17178 -75.42521 6995 ft 5 kts 275°
2026-05-08 12:58 6.17180 -75.42560 6997 ft 5 kts 266°
2026-05-08 12:58 6.17158 -75.42606 6998 ft 8 kts 229°
2026-05-08 12:58 6.17136 -75.42646 6999 ft 5 kts 264°
2026-05-08 12:58 6.17134 -75.42676 7000 ft 3 kts 268°
2026-05-08 12:59 6.17134 -75.42684 7000 ft 0 kts 268°